User: anonymous   Login
Location: Bangkok
(13.7500°N, 100.5170°E)
Time: 05:44:02
(UTC+07:00)
Language:

Cosmos 1898 Rocket - Orbit

View from above orbital plane
View from above orbital plane
View from above satellite
View from above satellite

Ground track
Ground track

The orbit data is extracted from the following two-line orbital elements,

1 18586U 87098B   15242.48215286  .00000138  00000-0  55760-4 0  9999
2 18586 074.0054 064.4804 0021967 276.0441 147.8549 14.36648133453059
Epoch (UTC): 30 August 2015 11:34:18
Eccentricity: 0.0021967
inclination: 74.0054°
perigee height: 754 km
apogee height: 785 km
right ascension of ascending node: 64.4804°
argument of perigee: 276.0441°
revolutions per day: 14.36648133
mean anomaly at epoch: 147.8549°
orbit number at epoch: 45305

The dashed part of the orbit path shows where the satellite is in the earth's shadow,  

DLR